Location: Nitra
(0.0000°N, 18.0833°E)
Time: 05:34:34
(UTC+01:00)

YAOGAN 1 - Pass Details

Date: 24 January 2021
Orbit: 618 x 620 km, 97.9° (Epoch: 04 March)

Event Time Altitude Azimuth Distance (km) Brightness Sun altitude
Rises 18:48:05 0° 163° (SSE) 2,893 6.0 -11.4°
Reaches altitude 10° 18:50:18 10° 160° (SSE) 1,985 5.2 -11.9°
Maximum altitude 18:54:34 64° 78° (ENE) 686 2.5 -12.9°
Drops below altitude 10° 18:58:50 10° 357° (N) 1,977 5.0 -13.9°
Sets 19:01:01 0° 354° (N) 2,879 5.8 -14.4°
